EHI
0 0 0 0 0 0 0 0 0 0 0 0 0 0 0 0 0 0 0 0 0 0 0 0 0 0 0 0 0 0 0 0 0 0 0 0 0 0 0 0 0 0 0
0 0 0 0 0 0 0 0 0 0 0 0 0 0 0 0 0 0 0 0 0 0 0 0 0 0 0 0 0 0 0 0 0 0 0 0 0 0 0 0 0 0 0
0 0 0 0 0 0 0 0 0 0 0 0 0 0 0 0 0 0 0 0 0 0 0 0 0 0 0 0 0 0 0 0 0 0 0 0 0 0 0 0 0 0 0
0 0 0 0 0 0 0 0 0 0 0 0 0 0 0 0 0 0 0 0 0 0 0 0 0 0 0 0 0 0 0 0 0 0 0 0 0 0 0 0 0 0 0
0 0 0 0 0 0 0 0 0 0 0 0 0 0 0 0 0 0 0 0 0 0 0 0 0 0 0 0 0 0 0 0 0 0 0 0 0 0 0 0 0 0 0
0 0 0 0 0 0 0 0 0 0 0 0 0 0 0 0 0 0 0 0 0 0 0 0 0 0 0 0 0 0 0 0 0 0 0 0 0 0 0 0 0 0 0
0 0 0 0 0 0 0 0 0 0 0 0 0 0 0 0 0 0 0 0 0 0 0 0 0 0 0 0 0 0 0 0 0 0 0 0 0 0 0 0 0 0 0
0 0 0 0 0 0 0 0 0 0 0 0 0 0 0 0 0 0 0 0 0 0 0 0 0 0 0 0 0 0 0 0 0 0 0 0 0 0 0 0 0 0 0
0 0 0 0 0 0 0 0 0 0 0 0 0 0 0 0 0 0 0 0 0 0 0 0 0 0 0 0 0 0 0 0 0 0 0 0 0 0 0 0 0 0 0
0 0 0 0 0 0 0 0 0 0 0 0 0 0 0 0 0 0 0 0 0 0 0 0 0 0 0 0 0 0 0 0 0 0 0 0 0 0 0 0 0 0 0
0 0 0 0 0 0 0 0 0 0 0 0 0 0 0 0 0 0 0 0 0 0 0 0 0 0 0 0 0 0 0 0 0 0 0 0 0 0 0 0 0 0 0
0 0 0 0 0 0 0 0 0 0 0 0 0 0 0 0 0 0 0 0 0 0 0 0 0 0 0 0 0 0 0 0 0 0 0 0 0 0 0 0 0 0 0
0 0 0 0 0 0 0 0 0 0 0 0 0 0 0 0 0 0 0 0 0 0 0 0 0 0 0 0 0 0 0 0 0 0 0 0 0 0 0 0 0 0 0
0 0 0 0 0 0 0 0 0 0 0 0 0 0 0 0 0 0 0 0 0 0 0 0 0 0 0 0 0 0 0 0 0 0 0 0 0 0 0 0 0 0 0
0 0 0 0 0 0 0 0 0 0 0 0 0 0 0 0 0 0 0 0 0 0 0 0 0 0 0 0 0 0 0 0 0 0 0 0 0 0 0 0 0 0 0
0 0 0 0 0 0 0 0 0 0 0 0 0 0 0 0 0 0 0 0 0 0 0 0 0 0 0 0 0 0 0 0 0 0 0 0 0 0 0 0 0 0 0
0 0 0 0 0 0 0 0 0 0 0 0 0 0 0 0 0 0 0 0 0 0 0 0 0 0 0 0 0 0 0 0 0 0 0 0 0 0 0 0 0 0 0
0 0 0 0 0 0 0 0 0 0 0 0 0 0 0 0 0 0 0 0 0 0 0 0 0 0 0 0 0 0 0 0 0 0 0 0 0 0 0 0 0 0 0
0 0 0 0 0 0 0 0 0 0 0 0 0 0 0 0 0 0 0 0 0 0 0 0 0 0 0 0 0 0 0 0 0 0 0 0 0 0 0 0 0 0 0
0 0 0 0 0 0 0 0 0 0 0 0 0 0 0 0 0 0 0 0 0 0 0 0 0 0 0 0 0 0 0 0 0 0 0 0 0 0 0 0 0 0 0
0 0 0 0 0 0 0 0 0 0 0 0 0 0 0 0 0 0 0 0 0 0 0 0 0 0 0 0 0 0 0 0 0 0 0 0 0 0 0 0 0 0 0
0 0 0 0 0 0 0 0 0 0 0 0 0 0 0 0 0 0 0 0 0 0 0 0 0 0 0 0 0 0 0 0 0 0 0 0 0 0 0 0 0 0 0
0 0 0 0 0 0 0 0 0 0 0 0 0 0 0 0 0 0 0 0 0 0 0 0 0 0 0 0 0 0 0 0 0 0 0 0 0 0 0 0 0 0 0
0 0 0 0 0 0 0 0 0 0 0 0 0 0 0 0 0 0 0 0 0 0 0 0 0 0 0 0 0 0 0 0 0 0 0 0 0 0 0 0 0 0 0
0 0 0 0 0 0 0 0 0 0 0 0 0 0 0 0 0 0 0 0 0 0 0 0 0 0 0 0 0 0 0 0 0 0 0 0 0 0 0 0 0 0 0
0 0 0 0 0 0 0 0 0 0 0 0 0 0 0 0 0 0 0 0 0 0 0 0 0 0 0 0 0 0 0 0 0 0 0 0 0 0 0 0 0 0 0
Wind_Speed
11 11 11 10 10 10 10 10 9 9 9 9 9 9 10 10 10 9 10 9 10 9 8 9 10 8 6 6 6 6 7 8 11 9 7 7 9 10 9 10 10 10 10
9 10 10 9 9 10 10 9 9 9 8 8 8 9 9 9 9 10 10 9 10 10 10 10 10 7 9 7 6 8 8 8 9 11 9 8 9 10 10 11 9 9 10
9 9 9 10 10 10 9 9 8 8 8 8 8 8 8 8 8 9 9 9 9 10 9 10 9 9 9 8 8 8 7 7 8 9 9 7 7 7 9 10 11 10 10
9 9 9 10 9 9 8 8 8 8 8 7 7 7 7 7 7 8 8 8 9 9 9 9 9 9 10 9 8 9 7 7 8 8 8 8 8 8 8 8 9 9 9
9 9 9 8 8 8 8 7 7 7 7 6 6 6 6 6 6 7 7 8 8 8 8 8 8 8 9 9 7 7 7 7 7 7 8 8 8 7 7 7 9 9 10
9 9 8 8 8 8 7 7 7 7 6 6 6 6 6 5 5 7 7 7 7 8 7 7 7 8 10 12 13 13 11 9 8 8 8 9 10 9 8 8 9 9 9
9 8 8 8 8 8 7 7 7 6 6 6 6 6 6 6 6 7 8 7 7 7 7 6 5 5 8 7 10 12 13 14 14 11 10 11 10 9 9 10 10 10 11
9 8 8 8 8 7 7 7 6 5 5 5 5 6 5 5 6 7 7 7 6 6 6 6 6 6 6 7 7 8 9 10 11 10 10 10 9 9 9 10 11 11 11
9 9 9 8 8 8 8 7 6 5 5 5 5 5 5 4 5 6 6 4 4 5 5 5 6 6 8 9 8 8 9 8 8 10 12 13 14 15 12 8 7 8 10
9 8 8 8 8 8 7 6 5 4 4 4 4 4 5 4 4 5 6 3 4 4 4 5 7 8 8 9 8 7 8 8 7 7 9 10 10 11 12 9 7 8 9
7 7 7 7 7 7 6 5 5 4 4 4 4 3 3 3 4 5 6 4 4 4 4 4 4 8 9 9 9 7 8 8 7 7 7 7 7 6 6 6 6 6 8
8 8 7 7 6 5 6 5 5 5 4 4 3 3 2 2 3 4 6 6 5 5 4 4 4 7 8 9 8 8 10 9 5 5 6 6 6 6 5 6 6 7 8
8 8 7 7 6 6 6 6 5 4 4 3 3 3 2 2 2 4 5 5 6 5 4 6 7 7 7 6 7 9 8 5 5 6 6 6 6 6 6 6 6 7 8
9 8 7 7 6 5 4 4 4 4 4 3 3 3 2 2 2 2 2 3 4 4 3 4 5 5 5 6 6 5 4 5 5 6 6 6 5 5 5 5 6 6 6
8 7 6 6 6 5 4 3 3 3 3 4 3 3 3 3 3 4 4 3 3 3 3 3 3 3 4 4 4 4 4 4 5 5 5 5 5 5 5 5 5 6 6
8 7 5 5 4 4 4 2 1 2 2 3 4 4 4 5 5 6 6 6 6 5 4 4 4 4 4 4 4 4 4 5 5 5 5 5 5 5 6 5 5 6 6
8 7 5 5 5 4 4 3 2 1 2 3 3 4 4 4 5 5 5 5 4 4 3 4 4 4 4 4 4 5 5 5 4 5 5 5 5 5 6 6 6 6 6
7 6 6 5 4 4 4 3 3 3 2 1 2 3 3 3 4 4 4 3 3 3 4 4 4 4 4 5 5 5 5 5 5 5 5 5 5 6 6 6 6 6 6
6 5 5 4 4 3 3 3 3 3 2 2 1 1 2 2 3 4 4 3 4 4 4 4 4 4 5 5 5 5 5 5 5 5 5 5 5 6 6 6 6 7 7
5 6 5 4 4 4 3 3 3 3 2 2 2 2 1 2 2 3 3 3 4 4 4 4 4 5 5 5 5 5 5 5 5 5 5 5 5 5 6 6 6 6 6
5 6 6 4 4 3 3 3 3 3 3 2 2 3 4 3 3 4 4 4 4 4 4 5 5 5 5 5 5 6 7 6 5 5 5 5 5 5 5 5 6 6 6
5 5 4 4 3 3 3 3 2 2 3 3 2 2 4 4 3 4 4 4 4 4 4 5 5 5 5 5 5 6 6 6 6 6 5 5 5 5 5 5 5 5 5
5 5 4 3 3 4 3 2 2 2 3 3 3 3 3 3 4 4 4 4 4 4 5 5 5 5 5 5 6 6 7 6 6 6 6 6 6 5 5 6 6 6 6
5 4 4 3 3 3 2 2 2 2 3 3 3 3 3 4 4 5 5 5 5 5 5 5 6 7 9 7 6 6 6 7 7 6 8 8 7 6 6 6 6 6 6
4 4 3 3 3 2 2 2 2 2 3 3 3 3 4 4 4 5 5 5 6 6 7 7 6 7 9 10 9 8 10 12 12 8 7 7 8 8 7 7 6 6 6
3 3 3 2 2 2 2 2 2 3 3 3 3 4 4 5 5 5 5 5 5 5 6 6 7 8 10 9 10 12 13 13 13 13 8 6 7 7 7 6 7 6 6
Wind_Direction
198 199 201 204 205 208 212 214 214 215 214 215 215 215 216 218 218 219 223 223 227 230 227 231 235 234 234 234 233 235 239 243 260 271 268 269 267 267 268 270 276 278 278
194 196 199 199 201 205 209 211 212 214 213 214 216 218 219 220 219 222 225 224 227 230 231 231 236 233 235 235 233 236 241 244 255 269 272 271 269 272 275 278 279 277 278
190 193 194 196 198 203 206 206 207 209 210 211 214 218 220 221 222 224 227 228 231 234 234 234 237 234 237 236 236 240 244 248 251 263 272 275 272 271 277 276 276 276 277
186 190 194 196 196 199 200 201 203 204 206 208 212 216 218 221 224 226 228 232 235 237 236 237 237 234 239 241 241 244 248 250 253 260 268 273 273 274 275 278 280 279 280
185 190 194 192 190 191 194 196 197 200 203 205 210 214 216 219 222 224 227 233 236 239 239 239 239 241 245 246 246 247 247 250 254 259 266 272 271 273 273 277 280 285 285
186 190 185 184 184 188 191 192 194 197 198 200 206 211 215 218 213 219 230 234 238 240 243 244 244 240 242 246 249 252 250 252 256 260 264 266 272 275 278 277 282 286 286
185 184 181 182 183 185 184 188 192 195 196 201 206 210 219 219 207 219 227 239 242 244 246 248 247 247 249 253 255 256 255 254 257 262 265 267 273 278 279 280 279 281 283
182 182 180 181 181 180 183 189 191 192 197 203 208 213 220 218 209 223 228 238 243 244 245 249 253 254 252 259 263 262 261 259 258 259 266 272 276 281 278 277 282 283 282
184 183 180 180 178 179 185 188 187 188 195 202 208 213 220 218 207 218 227 234 238 243 245 247 249 255 256 260 264 263 266 267 263 264 271 277 280 281 281 281 279 279 283
186 181 177 178 178 181 183 180 180 183 188 191 206 216 222 225 206 210 223 231 237 244 247 246 248 259 264 264 265 264 266 272 274 275 276 277 278 280 278 274 277 279 286
173 168 169 174 176 175 171 172 172 172 179 191 202 214 223 226 207 211 225 236 239 247 251 253 255 260 266 268 271 269 275 283 280 277 277 278 278 278 275 272 270 270 277
160 162 166 166 161 165 165 167 171 173 181 191 198 210 222 218 221 220 234 248 257 257 258 261 264 268 269 270 274 278 283 284 277 275 275 276 278 279 278 276 271 268 268
159 162 161 159 161 167 168 170 173 179 187 195 203 212 222 227 219 227 242 256 261 268 268 273 277 276 276 273 276 285 286 279 277 276 277 280 285 288 286 280 276 271 270
160 160 159 161 162 166 168 174 180 187 192 198 208 217 223 232 230 225 240 250 255 262 267 269 272 274 277 279 282 281 279 278 280 280 284 287 290 287 285 288 288 290 285
158 157 160 163 164 164 167 177 194 201 204 205 213 215 222 235 238 252 261 258 258 258 269 264 261 264 268 270 274 277 276 275 277 280 282 285 285 285 286 289 287 286 283
157 159 162 164 163 163 158 141 114 205 207 231 236 238 244 249 252 262 270 274 277 271 275 261 262 265 268 273 276 277 276 278 280 282 282 283 285 287 288 288 284 282 283
162 160 160 164 165 167 168 168 161 138 173 213 220 236 245 247 253 264 268 269 266 267 264 259 262 266 270 272 273 274 275 277 279 277 278 280 282 283 283 284 283 284 285
157 156 161 165 167 171 175 177 178 182 197 210 211 227 239 243 253 260 259 264 250 249 252 257 262 265 268 270 271 273 275 276 272 272 275 276 278 280 281 281 281 284 288
155 156 158 158 162 168 170 172 179 192 201 208 214 214 221 241 252 248 253 252 252 256 259 262 264 266 268 269 271 272 272 272 273 273 271 273 274 277 278 280 282 284 284
152 151 155 158 162 167 170 174 182 191 200 209 218 218 209 233 241 243 249 253 256 260 263 265 267 267 267 267 268 268 268 268 267 265 268 270 272 274 276 277 280 282 283
148 152 156 160 167 171 175 182 189 195 206 218 229 231 242 252 252 255 257 258 259 262 264 267 268 267 265 265 265 265 265 265 266 267 267 268 270 270 272 274 277 277 279
150 155 161 164 164 171 178 184 191 203 212 224 231 231 247 254 251 255 259 263 265 266 267 268 267 266 265 265 265 265 264 264 264 264 265 266 266 268 269 269 273 278 279
150 153 155 158 161 169 178 183 192 205 218 229 237 243 246 251 254 259 264 268 269 268 268 266 267 267 267 264 262 261 261 262 263 265 265 265 264 265 266 266 267 272 277
151 154 157 159 164 174 181 191 203 215 226 237 244 249 253 257 260 264 268 270 271 271 269 268 267 268 270 271 266 262 260 262 262 256 255 258 260 263 263 262 264 268 270
151 156 162 168 172 179 187 201 214 224 235 243 249 253 257 260 263 266 268 269 272 272 274 273 268 267 267 268 268 268 267 268 267 262 249 247 250 252 255 258 260 264 263
149 153 160 166 175 186 198 212 223 233 243 249 253 257 261 264 266 268 270 270 272 274 274 273 270 272 274 272 269 268 270 271 270 268 259 247 245 246 247 249 253 255 257